Regional Weather Roundup
Issued by NWS Charleston, WV

Home | Current Version | Previous Version | Text Only | Print | Product List | Glossary Off
Versions: 1 2 3 4 5 6 7 8 9 10 11 12 13 14 15 16 17 18 19 20 21 22 23 24 25 26 27 28

000
ASUS41 KRLX 161110
RWRRLX
West Virginia Regional Weather Roundup
National Weather Service Charleston WV
700 AM EDT MON OCT 16 2017

Note: "fair" indicates few or no clouds below 12,000 feet with no
significant weather and/or obstructions to visibility.

WVZ003-161200-
Northern Panhandle of West Virginia

CITY           SKY/WX    TMP DP  RH WIND       PRES   REMARKS
WHEELING       LGT RAIN  49  42  77 NW7       30.16R
$$

WVZ009-161200-
Northwest West Virginia

CITY           SKY/WX    TMP DP  RH WIND       PRES   REMARKS
PARKERSBURG    CLOUDY    52  41  66 VRB7      30.20R
$$

WVZ006-161200-
Western West Virginia

CITY           SKY/WX    TMP DP  RH WIND       PRES   REMARKS
HUNTINGTON     CLOUDY    52  42  69 N10       30.21R
$$

WVZ015-161200-
West Central West Virginia

CITY           SKY/WX    TMP DP  RH WIND       PRES   REMARKS
CHARLESTON     CLOUDY    52  45  77 W3        30.18R
$$

WVZ022-031-161200-
North Central West Virginia

CITY           SKY/WX    TMP DP  RH WIND       PRES   REMARKS
CLARKSBURG     CLOUDY    53  45  74 NW6       30.14R
MORGANTOWN     CLOUDY    52  42  69 VRB6      30.14R
$$

WVZ025-035-042-045-161200-
Southern West Virginia

CITY           SKY/WX    TMP DP  RH WIND       PRES   REMARKS
BECKLEY        CLOUDY    47  44  90 N8        30.15R
LOGAN          CLOUDY    50  46  87 NW7       30.18S
BLUEFIELD      CLOUDY    44  42  93 NW7       30.16R
LEWISBURG      CLOUDY    50  43  77 W3        30.13S
$$

WVZ047-161200-
Northern Mountains of West Virginia

CITY           SKY/WX    TMP DP  RH WIND       PRES   REMARKS
ELKINS         CLOUDY    50  43  77 NW8       30.13R
$$

WVZ052-161200-
Eastern Panhandle of West Virginia

CITY           SKY/WX    TMP DP  RH WIND       PRES   REMARKS
MARTINSBURG    CLOUDY    59  46  62 W9        30.03R
PETERSBURG     CLOUDY    56  43  61 NW7       30.07S
$$




USA.gov is the U.S. government's official web portal to all federal, state and local government web resources and services.